When you browse on this site, cookies collect data to enhance your experience and personalize the content and advertising you see.
Visit our Privacy Policy to learn more. By continuing to use the site, you agree to this use of cookies and data.
  • In Hungary
  • List of Countries
  • For 7 days
  • Water Temperature
  • Weather Map
  • News
  • Weather Widgets
  • user-avatar
    Login

    Hourly Weather Kyzylasker

    Today, 10 December, Tuesday

    Time Temperature Precipitation Wind Pressure Humidity
    00:00 +8°C° 0 mm 3 mps 743 mmHg 41%
    01:00 +8°C° 0 mm 2 mps 743 mmHg 42%
    02:00 +8°C° 0 mm 2 mps 743 mmHg 43%
    03:00 +8°C° 0 mm 3 mps 743 mmHg 42%
    04:00 +7°C° 0 mm 4 mps 742 mmHg 42%
    05:00 +7°C° 0 mm 4 mps 742 mmHg 42%
    06:00 +7°C° 0 mm 4 mps 743 mmHg 42%
    07:00 +7°C° 0 mm 4 mps 743 mmHg 42%
    08:00 +7°C° 0 mm 4 mps 743 mmHg 42%
    09:00 +8°C° 0 mm 4 mps 744 mmHg 40%
    10:00 +10°C° 0 mm 3 mps 744 mmHg 38%
    11:00 +12°C° 0 mm 3 mps 744 mmHg 37%
    12:00 +12°C° 0 mm 3 mps 744 mmHg 37%
    13:00 +13°C° 0 mm 3 mps 744 mmHg 38%
    14:00 +13°C° 0 mm 3 mps 744 mmHg 38%
    15:00 +13°C° 0 mm 2 mps 744 mmHg 41%
    16:00 +12°C° 0 mm 2 mps 744 mmHg 45%
    17:00 +10°C° 0 mm 2 mps 744 mmHg 48%
    18:00 +10°C° 0 mm 1 mps 744 mmHg 54%
    19:00 +9°C° 0 mm 1 mps 745 mmHg 60%
    20:00 +7°C° 0 mm 1 mps 745 mmHg 66%
    21:00 +7°C° 0 mm 1 mps 745 mmHg 72%
    22:00 +5°C° 0 mm 0 mps 745 mmHg 77%
    23:00 +4°C° 0 mm 0 mps 745 mmHg 82%

    Tomorrow, 11 December, Wednesday

    Time Temperature Precipitation Wind Pressure Humidity
    00:00 +4°C° 0 mm 0 mps 745 mmHg 83%
    01:00 +3°C° 0 mm 0 mps 744 mmHg 83%
    02:00 +3°C° 0 mm 0 mps 744 mmHg 83%
    03:00 +3°C° 0 mm 0 mps 744 mmHg 84%
    04:00 +3°C° 0 mm 0 mps 744 mmHg 84%
    05:00 +3°C° 0 mm 0 mps 744 mmHg 85%
    06:00 +3°C° 0 mm 0 mps 744 mmHg 85%
    07:00 +3°C° 0 mm 0 mps 744 mmHg 85%
    08:00 +2°C° 0 mm 0 mps 744 mmHg 85%
    09:00 +5°C° 0 mm 0 mps 745 mmHg 76%
    10:00 +7°C° 0 mm 0 mps 745 mmHg 67%
    11:00 +9°C° 0 mm 0 mps 745 mmHg 59%
    12:00 +11°C° 0 mm 1 mps 745 mmHg 57%
    13:00 +11°C° 0 mm 1 mps 744 mmHg 54%
    14:00 +12°C° 0 mm 2 mps 744 mmHg 52%
    15:00 +10°C° 0 mm 2 mps 744 mmHg 57%
    16:00 +9°C° 0 mm 2 mps 743 mmHg 62%
    17:00 +8°C° 0 mm 2 mps 743 mmHg 66%
    18:00 +7°C° 0 mm 2 mps 743 mmHg 68%
    19:00 +7°C° 0 mm 2 mps 743 mmHg 70%
    20:00 +6°C° 0 mm 2 mps 743 mmHg 71%
    21:00 +6°C° 0 mm 2 mps 743 mmHg 72%
    22:00 +6°C° 0 mm 2 mps 743 mmHg 72%
    23:00 +6°C° 0 mm 2 mps 742 mmHg 73%

    Day after tomorrow, 12 December, Thursday

    Time Temperature Precipitation Wind Pressure Humidity
    00:00 +6°C° 0 mm 2 mps 742 mmHg 74%
    01:00 +5°C° 0 mm 3 mps 742 mmHg 75%
    02:00 +5°C° 0 mm 3 mps 742 mmHg 76%
    03:00 +5°C° 0.4 mm 3 mps 742 mmHg 78%
    04:00 +6°C° 0.4 mm 2 mps 742 mmHg 81%
    05:00 +6°C° 0.4 mm 2 mps 742 mmHg 83%
    06:00 +7°C° 0.3 mm 1 mps 742 mmHg 85%
    07:00 +7°C° 0.3 mm 1 mps 742 mmHg 87%
    08:00 +7°C° 0.3 mm 1 mps 742 mmHg 89%
    09:00 +8°C° 0.1 mm 1 mps 742 mmHg 87%
    10:00 +7°C° 0.1 mm 2 mps 742 mmHg 85%
    11:00 +7°C° 0.1 mm 2 mps 742 mmHg 83%
    12:00 +7°C° 0 mm 2 mps 742 mmHg 79%
    13:00 +9°C° 0 mm 1 mps 742 mmHg 75%
    14:00 +8°C° 0 mm 0 mps 741 mmHg 70%
    15:00 +8°C° 0 mm 0 mps 741 mmHg 73%
    16:00 +7°C° 0 mm 0 mps 741 mmHg 76%
    17:00 +8°C° 0 mm 1 mps 741 mmHg 79%
    18:00 +8°C° 0.1 mm 1 mps 741 mmHg 81%
    19:00 +7°C° 0.1 mm 1 mps 742 mmHg 84%
    20:00 +7°C° 0.1 mm 1 mps 742 mmHg 86%
    21:00 +7°C° 0 mm 1 mps 742 mmHg 85%
    22:00 +7°C° 0 mm 1 mps 742 mmHg 85%
    23:00 +7°C° 0 mm 1 mps 742 mmHg 84%

    13 December, Friday

    Time Temperature Precipitation Wind Pressure Humidity
    00:00 +7°C° 0 mm 1 mps 742 mmHg 82%
    01:00 +7°C° 0 mm 1 mps 742 mmHg 80%
    02:00 +5°C° 0 mm 2 mps 742 mmHg 78%
    03:00 +5°C° 0 mm 2 mps 742 mmHg 77%
    04:00 +5°C° 0 mm 2 mps 742 mmHg 77%
    05:00 +4°C° 0 mm 2 mps 742 mmHg 76%
    06:00 +4°C° 0 mm 2 mps 742 mmHg 78%
    07:00 +3°C° 0 mm 2 mps 742 mmHg 79%
    08:00 +3°C° 0 mm 2 mps 742 mmHg 81%
    09:00 +4°C° 0 mm 2 mps 742 mmHg 75%
    10:00 +6°C° 0 mm 2 mps 743 mmHg 69%
    11:00 +7°C° 0 mm 3 mps 743 mmHg 63%
    12:00 +8°C° 0 mm 3 mps 743 mmHg 60%
    13:00 +8°C° 0 mm 3 mps 742 mmHg 56%
    14:00 +9°C° 0 mm 3 mps 742 mmHg 53%
    15:00 +8°C° 0 mm 3 mps 742 mmHg 54%
    16:00 +8°C° 0 mm 2 mps 742 mmHg 56%
    17:00 +8°C° 0 mm 2 mps 742 mmHg 58%
    18:00 +7°C° 0 mm 2 mps 742 mmHg 62%
    19:00 +6°C° 0 mm 2 mps 742 mmHg 66%
    20:00 +5°C° 0 mm 2 mps 743 mmHg 70%
    21:00 +5°C° 0 mm 2 mps 743 mmHg 72%
    22:00 +3°C° 0 mm 3 mps 743 mmHg 74%
    23:00 +3°C° 0 mm 3 mps 743 mmHg 76%

    14 December, Saturday

    Time Temperature Precipitation Wind Pressure Humidity
    00:00 +3°C° 0 mm 3 mps 742 mmHg 76%
    01:00 +4°C° 0 mm 2 mps 742 mmHg 75%
    02:00 +4°C° 0 mm 2 mps 742 mmHg 75%
    03:00 +4°C° 0 mm 2 mps 742 mmHg 73%
    04:00 +4°C° 0 mm 2 mps 742 mmHg 71%
    05:00 +4°C° 0 mm 2 mps 742 mmHg 69%
    06:00 +3°C° 0 mm 3 mps 742 mmHg 67%
    07:00 +3°C° 0 mm 3 mps 742 mmHg 65%
    08:00 +3°C° 0 mm 3 mps 742 mmHg 63%
    09:00 +5°C° 0 mm 3 mps 742 mmHg 58%
    10:00 +8°C° 0 mm 3 mps 742 mmHg 52%
    11:00 +10°C° 0 mm 3 mps 742 mmHg 47%
    12:00 +11°C° 0 mm 3 mps 742 mmHg 45%
    13:00 +12°C° 0 mm 2 mps 742 mmHg 43%
    14:00 +13°C° 0 mm 2 mps 741 mmHg 41%
    15:00 +12°C° 0 mm 2 mps 741 mmHg 44%
    16:00 +10°C° 0 mm 2 mps 741 mmHg 48%
    17:00 +9°C° 0 mm 2 mps 741 mmHg 51%
    18:00 +9°C° 0 mm 2 mps 742 mmHg 52%
    19:00 +9°C° 0 mm 2 mps 742 mmHg 53%
    20:00 +9°C° 0 mm 3 mps 742 mmHg 54%
    21:00 +9°C° 0 mm 2 mps 742 mmHg 59%
    22:00 +8°C° 0 mm 2 mps 743 mmHg 63%
    23:00 +8°C° 0 mm 2 mps 743 mmHg 68%

    15 December, Sunday

    Time Temperature Precipitation Wind Pressure Humidity
    00:00 +8°C° 0 mm 2 mps 743 mmHg 71%
    01:00 +8°C° 0 mm 2 mps 743 mmHg 73%
    02:00 +8°C° 0 mm 3 mps 743 mmHg 76%
    03:00 +8°C° 0 mm 3 mps 744 mmHg 76%
    04:00 +7°C° 0 mm 3 mps 744 mmHg 76%
    05:00 +6°C° 0 mm 4 mps 744 mmHg 75%
    06:00 +7°C° 0 mm 3 mps 745 mmHg 78%
    07:00 +7°C° 0 mm 3 mps 745 mmHg 81%
    08:00 +5°C° 0 mm 3 mps 745 mmHg 84%
    09:00 +7°C° 0 mm 3 mps 746 mmHg 79%
    10:00 +9°C° 0 mm 3 mps 746 mmHg 74%
    11:00 +10°C° 0 mm 4 mps 746 mmHg 69%
    12:00 +10°C° 0 mm 3 mps 746 mmHg 65%
    13:00 +10°C° 0 mm 2 mps 745 mmHg 62%
    14:00 +12°C° 0 mm 2 mps 745 mmHg 58%
    15:00 +10°C° 0 mm 2 mps 745 mmHg 60%
    16:00 +10°C° 0 mm 2 mps 745 mmHg 61%
    17:00 +9°C° 0 mm 2 mps 745 mmHg 62%
    18:00 +9°C° 0.1 mm 2 mps 745 mmHg 67%
    19:00 +8°C° 0.1 mm 3 mps 745 mmHg 71%
    20:00 +7°C° 0.1 mm 3 mps 745 mmHg 76%
    21:00 +7°C° 0.4 mm 3 mps 745 mmHg 79%
    22:00 +7°C° 0.4 mm 2 mps 745 mmHg 81%
    23:00 +8°C° 0.4 mm 1 mps 746 mmHg 84%
    Show more